QPF
0.00 0.00 0.00 0.00 0.00 0.00 0.00 0.00 0.00 0.00 0.00 0.01 0.01 0.02 0.03 0.05 0.06 0.06 0.06 0.06 0.06 0.04 0.02 0.01 0.01 0.02 0.01 0.01 0.00 0.00 0.00 0.01 0.01 0.00 0.00 0.00 0.01 0.01 0.01 0.01 0.01 0.01 0.01
0.00 0.00 0.00 0.00 0.00 0.00 0.00 0.00 0.00 0.00 0.00 0.00 0.00 0.01 0.01 0.02 0.04 0.06 0.07 0.07 0.06 0.06 0.05 0.03 0.02 0.02 0.01 0.01 0.01 0.00 0.00 0.01 0.01 0.01 0.00 0.01 0.01 0.02 0.02 0.02 0.01 0.01 0.01
0.00 0.00 0.00 0.00 0.00 0.00 0.00 0.00 0.00 0.00 0.00 0.00 0.00 0.00 0.00 0.01 0.01 0.03 0.05 0.06 0.06 0.06 0.06 0.05 0.03 0.03 0.02 0.01 0.01 0.00 0.00 0.00 0.01 0.01 0.01 0.01 0.01 0.01 0.02 0.02 0.02 0.02 0.02
0.00 0.00 0.00 0.00 0.00 0.00 0.00 0.00 0.00 0.00 0.00 0.00 0.00 0.00 0.00 0.00 0.01 0.01 0.02 0.03 0.04 0.05 0.05 0.05 0.04 0.03 0.02 0.02 0.01 0.01 0.01 0.01 0.01 0.01 0.01 0.01 0.02 0.02 0.02 0.03 0.03 0.03 0.03
0.00 0.00 0.00 0.00 0.00 0.00 0.00 0.00 0.00 0.00 0.00 0.00 0.00 0.00 0.00 0.00 0.00 0.00 0.00 0.00 0.01 0.02 0.03 0.04 0.04 0.03 0.03 0.03 0.02 0.01 0.01 0.01 0.01 0.01 0.01 0.01 0.02 0.02 0.03 0.03 0.04 0.04 0.04
0.00 0.00 0.00 0.00 0.00 0.00 0.00 0.00 0.00 0.00 0.00 0.00 0.00 0.00 0.00 0.00 0.00 0.00 0.00 0.00 0.00 0.01 0.02 0.04 0.05 0.05 0.04 0.03 0.02 0.02 0.01 0.01 0.01 0.01 0.01 0.01 0.01 0.02 0.02 0.03 0.03 0.04 0.06
0.00 0.00 0.00 0.00 0.00 0.00 0.00 0.00 0.00 0.00 0.00 0.00 0.00 0.00 0.00 0.00 0.00 0.00 0.00 0.00 0.00 0.01 0.02 0.03 0.04 0.05 0.05 0.04 0.03 0.02 0.02 0.01 0.01 0.01 0.01 0.01 0.01 0.01 0.03 0.03 0.03 0.03 0.03
0.00 0.01 0.01 0.01 0.01 0.01 0.01 0.01 0.01 0.01 0.01 0.00 0.00 0.00 0.00 0.00 0.00 0.00 0.00 0.00 0.00 0.00 0.01 0.03 0.04 0.04 0.04 0.04 0.04 0.03 0.01 0.01 0.01 0.01 0.01 0.01 0.01 0.02 0.04 0.05 0.05 0.05 0.05
0.01 0.01 0.01 0.01 0.02 0.02 0.02 0.01 0.01 0.01 0.01 0.01 0.01 0.00 0.00 0.00 0.00 0.00 0.00 0.00 0.00 0.00 0.01 0.02 0.04 0.05 0.06 0.05 0.04 0.03 0.02 0.02 0.02 0.02 0.02 0.03 0.03 0.03 0.05 0.06 0.06 0.06 0.08
0.01 0.02 0.02 0.02 0.03 0.02 0.02 0.02 0.02 0.02 0.02 0.01 0.01 0.01 0.01 0.00 0.00 0.00 0.00 0.00 0.00 0.00 0.01 0.03 0.04 0.07 0.07 0.06 0.05 0.04 0.03 0.02 0.02 0.02 0.02 0.03 0.03 0.04 0.06 0.05 0.06 0.06 0.06
0.02 0.03 0.02 0.02 0.03 0.03 0.03 0.02 0.03 0.03 0.03 0.02 0.01 0.01 0.01 0.01 0.00 0.00 0.00 0.00 0.01 0.01 0.02 0.03 0.04 0.08 0.10 0.09 0.09 0.08 0.05 0.04 0.03 0.03 0.03 0.05 0.04 0.05 0.06 0.06 0.05 0.06 0.06
0.03 0.03 0.02 0.02 0.02 0.03 0.03 0.03 0.03 0.03 0.03 0.03 0.03 0.02 0.01 0.01 0.01 0.01 0.01 0.01 0.01 0.00 0.01 0.03 0.04 0.08 0.12 0.14 0.13 0.11 0.08 0.05 0.04 0.04 0.05 0.07 0.07 0.06 0.07 0.08 0.07 0.07 0.08
0.03 0.03 0.02 0.02 0.02 0.03 0.03 0.04 0.04 0.03 0.03 0.03 0.03 0.02 0.02 0.01 0.01 0.00 0.01 0.01 0.01 0.01 0.01 0.04 0.06 0.09 0.14 0.17 0.18 0.16 0.09 0.05 0.05 0.05 0.06 0.07 0.07 0.06 0.05 0.07 0.09 0.08 0.07
0.04 0.03 0.03 0.02 0.02 0.03 0.03 0.04 0.04 0.04 0.04 0.03 0.03 0.02 0.02 0.01 0.01 0.00 0.00 0.01 0.01 0.01 0.02 0.06 0.10 0.12 0.16 0.21 0.22 0.18 0.11 0.07 0.07 0.06 0.06 0.07 0.07 0.06 0.06 0.06 0.07 0.07 0.07
0.05 0.04 0.03 0.03 0.03 0.03 0.03 0.03 0.04 0.03 0.03 0.03 0.02 0.02 0.02 0.01 0.00 0.00 0.00 0.01 0.01 0.02 0.05 0.08 0.13 0.15 0.19 0.23 0.25 0.20 0.14 0.09 0.09 0.08 0.07 0.07 0.08 0.08 0.07 0.06 0.06 0.04 0.05
0.06 0.05 0.04 0.03 0.03 0.03 0.03 0.03 0.03 0.03 0.02 0.02 0.02 0.02 0.02 0.01 0.01 0.01 0.01 0.01 0.02 0.04 0.07 0.09 0.13 0.18 0.24 0.25 0.24 0.22 0.18 0.11 0.09 0.08 0.07 0.07 0.08 0.07 0.06 0.06 0.05 0.04 0.04
0.06 0.06 0.04 0.03 0.03 0.03 0.03 0.03 0.03 0.02 0.02 0.02 0.02 0.02 0.01 0.02 0.01 0.01 0.01 0.02 0.03 0.05 0.07 0.09 0.13 0.18 0.25 0.28 0.26 0.21 0.18 0.12 0.09 0.08 0.07 0.07 0.08 0.08 0.06 0.05 0.05 0.04 0.04
0.05 0.05 0.04 0.03 0.03 0.02 0.02 0.02 0.02 0.02 0.02 0.02 0.02 0.02 0.02 0.02 0.02 0.02 0.02 0.02 0.03 0.05 0.08 0.10 0.13 0.19 0.23 0.27 0.25 0.22 0.17 0.12 0.09 0.08 0.08 0.07 0.07 0.08 0.08 0.05 0.04 0.04 0.04
0.06 0.05 0.04 0.03 0.03 0.03 0.03 0.03 0.03 0.03 0.02 0.02 0.02 0.02 0.03 0.03 0.03 0.04 0.04 0.04 0.04 0.06 0.09 0.13 0.15 0.19 0.22 0.22 0.20 0.17 0.13 0.09 0.07 0.07 0.07 0.06 0.06 0.06 0.07 0.06 0.04 0.04 0.05
0.06 0.07 0.07 0.05 0.04 0.03 0.04 0.04 0.03 0.02 0.02 0.03 0.03 0.03 0.04 0.04 0.04 0.04 0.04 0.05 0.06 0.07 0.10 0.15 0.18 0.20 0.20 0.19 0.16 0.13 0.10 0.07 0.06 0.05 0.05 0.05 0.05 0.05 0.06 0.06 0.04 0.03 0.03
0.06 0.06 0.07 0.06 0.05 0.04 0.05 0.04 0.03 0.04 0.05 0.04 0.03 0.03 0.05 0.04 0.04 0.04 0.04 0.06 0.07 0.08 0.10 0.14 0.17 0.17 0.17 0.15 0.12 0.11 0.10 0.06 0.05 0.04 0.03 0.04 0.04 0.04 0.05 0.05 0.04 0.03 0.03
0.06 0.06 0.06 0.06 0.05 0.07 0.06 0.04 0.04 0.04 0.04 0.03 0.03 0.03 0.03 0.03 0.04 0.04 0.04 0.06 0.07 0.08 0.09 0.12 0.14 0.14 0.13 0.11 0.09 0.10 0.09 0.06 0.04 0.03 0.03 0.03 0.03 0.03 0.03 0.04 0.04 0.03 0.02
0.06 0.06 0.06 0.06 0.05 0.07 0.07 0.04 0.03 0.02 0.02 0.02 0.02 0.03 0.03 0.02 0.03 0.03 0.04 0.05 0.05 0.06 0.07 0.09 0.10 0.11 0.10 0.08 0.08 0.08 0.08 0.06 0.04 0.03 0.03 0.03 0.03 0.03 0.03 0.02 0.03 0.03 0.02
0.05 0.06 0.06 0.05 0.04 0.05 0.05 0.05 0.04 0.04 0.04 0.03 0.02 0.03 0.03 0.02 0.03 0.03 0.03 0.03 0.04 0.05 0.06 0.08 0.10 0.09 0.08 0.07 0.06 0.06 0.06 0.04 0.03 0.02 0.02 0.02 0.02 0.02 0.02 0.02 0.01 0.01 0.02
0.06 0.06 0.06 0.05 0.04 0.04 0.05 0.05 0.05 0.04 0.04 0.03 0.02 0.02 0.02 0.02 0.02 0.03 0.03 0.03 0.03 0.05 0.06 0.07 0.07 0.06 0.05 0.04 0.04 0.04 0.05 0.03 0.02 0.01 0.01 0.01 0.01 0.01 0.01 0.01 0.01 0.01 0.01
0.06 0.06 0.05 0.05 0.04 0.03 0.04 0.04 0.04 0.03 0.03 0.02 0.02 0.01 0.01 0.01 0.02 0.02 0.02 0.01 0.02 0.03 0.03 0.04 0.03 0.03 0.02 0.02 0.02 0.03 0.03 0.01 0.01 0.01 0.00 0.00 0.01 0.01 0.01 0.00 0.00 0.00 0.00
MSLP
1009.61 1009.53 1009.53 1009.58 1009.64 1009.70 1009.75 1009.77 1009.77 1009.76 1009.75 1009.72 1009.67 1009.60 1009.50 1009.38 1009.23 1009.07 1008.92 1008.80 1008.73 1008.73 1008.80 1008.94 1009.15 1009.39 1009.66 1009.91 1010.13 1010.29 1010.38 1010.40 1010.35 1010.21 1010.01 1009.77 1009.49 1009.21 1008.95 1008.73 1008.57 1008.47 1008.44
1009.14 1009.02 1008.98 1008.98 1009.01 1009.05 1009.09 1009.12 1009.14 1009.15 1009.16 1009.16 1009.14 1009.11 1009.05 1008.97 1008.86 1008.75 1008.63 1008.53 1008.46 1008.44 1008.48 1008.57 1008.70 1008.88 1009.08 1009.29 1009.48 1009.65 1009.78 1009.85 1009.87 1009.82 1009.72 1009.56 1009.37 1009.16 1008.96 1008.78 1008.65 1008.57 1008.55
1008.66 1008.47 1008.35 1008.27 1008.23 1008.22 1008.22 1008.23 1008.26 1008.29 1008.33 1008.37 1008.41 1008.44 1008.44 1008.42 1008.38 1008.32 1008.26 1008.20 1008.15 1008.13 1008.15 1008.20 1008.29 1008.42 1008.56 1008.73 1008.90 1009.06 1009.20 1009.31 1009.39 1009.41 1009.38 1009.31 1009.20 1009.07 1008.94 1008.84 1008.77 1008.74 1008.77
1008.19 1007.90 1007.67 1007.49 1007.35 1007.26 1007.20 1007.19 1007.21 1007.26 1007.34 1007.43 1007.53 1007.62 1007.69 1007.75 1007.78 1007.78 1007.78 1007.77 1007.76 1007.75 1007.77 1007.81 1007.87 1007.96 1008.07 1008.19 1008.33 1008.48 1008.62 1008.74 1008.84 1008.91 1008.94 1008.93 1008.90 1008.85 1008.81 1008.80 1008.82 1008.89 1009.01
1007.72 1007.32 1006.98 1006.68 1006.44 1006.26 1006.14 1006.10 1006.11 1006.17 1006.29 1006.43 1006.58 1006.73 1006.88 1006.99 1007.09 1007.15 1007.20 1007.23 1007.26 1007.28 1007.31 1007.35 1007.40 1007.46 1007.54 1007.63 1007.74 1007.86 1007.97 1008.08 1008.18 1008.26 1008.32 1008.36 1008.39 1008.42 1008.48 1008.57 1008.72 1008.91 1009.17
1007.26 1006.76 1006.30 1005.90 1005.56 1005.31 1005.15 1005.07 1005.08 1005.16 1005.30 1005.48 1005.69 1005.89 1006.07 1006.24 1006.37 1006.48 1006.56 1006.62 1006.67 1006.72 1006.76 1006.80 1006.84 1006.89 1006.94 1007.00 1007.07 1007.14 1007.22 1007.29 1007.37 1007.44 1007.50 1007.56 1007.65 1007.75 1007.90 1008.11 1008.39 1008.74 1009.15
1006.79 1006.21 1005.67 1005.19 1004.80 1004.49 1004.30 1004.21 1004.22 1004.32 1004.48 1004.69 1004.92 1005.15 1005.36 1005.54 1005.69 1005.81 1005.90 1005.97 1006.03 1006.08 1006.13 1006.17 1006.20 1006.23 1006.25 1006.28 1006.30 1006.33 1006.35 1006.38 1006.41 1006.45 1006.50 1006.58 1006.70 1006.87 1007.11 1007.43 1007.84 1008.34 1008.91
1006.32 1005.70 1005.12 1004.60 1004.17 1003.85 1003.65 1003.56 1003.58 1003.70 1003.88 1004.10 1004.34 1004.57 1004.78 1004.95 1005.09 1005.19 1005.27 1005.34 1005.39 1005.43 1005.46 1005.49 1005.51 1005.51 1005.51 1005.50 1005.48 1005.45 1005.42 1005.40 1005.38 1005.39 1005.43 1005.51 1005.65 1005.87 1006.19 1006.61 1007.14 1007.78 1008.50
1005.87 1005.24 1004.65 1004.14 1003.71 1003.40 1003.21 1003.13 1003.17 1003.29 1003.48 1003.70 1003.93 1004.14 1004.32 1004.47 1004.57 1004.65 1004.71 1004.74 1004.77 1004.79 1004.81 1004.82 1004.81 1004.79 1004.76 1004.71 1004.65 1004.58 1004.50 1004.44 1004.39 1004.37 1004.40 1004.48 1004.65 1004.91 1005.29 1005.79 1006.41 1007.15 1007.99
1005.46 1004.85 1004.28 1003.79 1003.39 1003.10 1002.93 1002.87 1002.91 1003.03 1003.21 1003.41 1003.61 1003.79 1003.94 1004.05 1004.12 1004.17 1004.20 1004.21 1004.21 1004.21 1004.20 1004.19 1004.16 1004.12 1004.06 1003.98 1003.89 1003.80 1003.70 1003.61 1003.55 1003.53 1003.56 1003.66 1003.85 1004.15 1004.57 1005.12 1005.80 1006.61 1007.52
1005.09 1004.52 1003.99 1003.53 1003.16 1002.90 1002.74 1002.69 1002.72 1002.83 1002.97 1003.14 1003.31 1003.45 1003.56 1003.64 1003.69 1003.72 1003.72 1003.72 1003.70 1003.69 1003.67 1003.63 1003.59 1003.53 1003.45 1003.37 1003.27 1003.17 1003.07 1003.00 1002.95 1002.95 1003.00 1003.14 1003.36 1003.69 1004.14 1004.72 1005.42 1006.25 1007.17
1004.78 1004.24 1003.75 1003.33 1002.99 1002.74 1002.59 1002.52 1002.53 1002.59 1002.70 1002.82 1002.94 1003.05 1003.14 1003.20 1003.23 1003.25 1003.26 1003.25 1003.24 1003.22 1003.19 1003.15 1003.10 1003.03 1002.96 1002.87 1002.79 1002.71 1002.65 1002.61 1002.61 1002.66 1002.77 1002.95 1003.22 1003.58 1004.05 1004.63 1005.33 1006.13 1007.03
1004.50 1004.00 1003.55 1003.15 1002.83 1002.58 1002.41 1002.31 1002.27 1002.29 1002.34 1002.41 1002.49 1002.56 1002.63 1002.69 1002.73 1002.76 1002.78 1002.79 1002.79 1002.78 1002.76 1002.73 1002.68 1002.62 1002.56 1002.50 1002.45 1002.42 1002.41 1002.44 1002.52 1002.64 1002.82 1003.07 1003.39 1003.78 1004.27 1004.84 1005.51 1006.26 1007.10
1004.25 1003.77 1003.34 1002.96 1002.64 1002.37 1002.18 1002.03 1001.95 1001.91 1001.90 1001.92 1001.96 1002.02 1002.07 1002.14 1002.20 1002.25 1002.30 1002.34 1002.37 1002.38 1002.37 1002.34 1002.31 1002.27 1002.23 1002.20 1002.20 1002.23 1002.30 1002.42 1002.58 1002.80 1003.07 1003.39 1003.76 1004.20 1004.69 1005.25 1005.88 1006.57 1007.33
1003.97 1003.51 1003.10 1002.73 1002.40 1002.13 1001.90 1001.72 1001.59 1001.50 1001.44 1001.42 1001.44 1001.48 1001.54 1001.61 1001.70 1001.78 1001.86 1001.93 1001.97 1002.00 1002.00 1001.99 1001.96 1001.94 1001.93 1001.94 1001.99 1002.09 1002.24 1002.45 1002.72 1003.03 1003.39 1003.79 1004.23 1004.70 1005.20 1005.75 1006.34 1006.97 1007.64
1003.64 1003.20 1002.80 1002.45 1002.13 1001.85 1001.61 1001.41 1001.25 1001.13 1001.05 1001.01 1001.01 1001.05 1001.11 1001.20 1001.30 1001.41 1001.51 1001.59 1001.64 1001.67 1001.68 1001.67 1001.65 1001.64 1001.65 1001.70 1001.80 1001.96 1002.20 1002.49 1002.84 1003.25 1003.69 1004.16 1004.65 1005.16 1005.69 1006.22 1006.78 1007.36 1007.96
1003.25 1002.82 1002.45 1002.11 1001.82 1001.56 1001.33 1001.14 1000.98 1000.86 1000.78 1000.75 1000.75 1000.80 1000.88 1000.98 1001.09 1001.20 1001.30 1001.37 1001.42 1001.43 1001.42 1001.40 1001.37 1001.37 1001.39 1001.47 1001.62 1001.84 1002.14 1002.50 1002.93 1003.41 1003.92 1004.45 1004.99 1005.53 1006.07 1006.60 1007.14 1007.68 1008.23
1002.77 1002.37 1002.02 1001.73 1001.47 1001.26 1001.07 1000.92 1000.81 1000.72 1000.68 1000.67 1000.70 1000.77 1000.86 1000.96 1001.07 1001.17 1001.25 1001.29 1001.31 1001.29 1001.26 1001.21 1001.17 1001.16 1001.20 1001.30 1001.48 1001.75 1002.09 1002.51 1002.99 1003.52 1004.08 1004.65 1005.22 1005.78 1006.33 1006.86 1007.39 1007.91 1008.43
1002.25 1001.87 1001.55 1001.30 1001.11 1000.95 1000.84 1000.76 1000.71 1000.70 1000.71 1000.76 1000.83 1000.92 1001.03 1001.14 1001.23 1001.30 1001.35 1001.35 1001.32 1001.27 1001.19 1001.12 1001.06 1001.05 1001.09 1001.21 1001.42 1001.72 1002.10 1002.55 1003.07 1003.62 1004.20 1004.79 1005.38 1005.95 1006.50 1007.04 1007.56 1008.07 1008.58
1001.74 1001.37 1001.08 1000.87 1000.73 1000.64 1000.61 1000.61 1000.65 1000.72 1000.81 1000.93 1001.05 1001.18 1001.31 1001.42 1001.50 1001.54 1001.54 1001.50 1001.43 1001.33 1001.22 1001.12 1001.05 1001.03 1001.09 1001.23 1001.46 1001.79 1002.19 1002.67 1003.20 1003.76 1004.35 1004.94 1005.52 1006.09 1006.64 1007.17 1007.69 1008.20 1008.70
1001.30 1000.92 1000.64 1000.46 1000.36 1000.33 1000.37 1000.45 1000.57 1000.72 1000.90 1001.08 1001.27 1001.44 1001.59 1001.70 1001.77 1001.79 1001.76 1001.68 1001.56 1001.43 1001.30 1001.19 1001.12 1001.12 1001.19 1001.36 1001.61 1001.96 1002.38 1002.87 1003.40 1003.96 1004.54 1005.11 1005.68 1006.23 1006.77 1007.29 1007.80 1008.30 1008.80
1001.01 1000.61 1000.31 1000.13 1000.04 1000.04 1000.12 1000.25 1000.44 1000.66 1000.90 1001.14 1001.38 1001.59 1001.76 1001.89 1001.95 1001.96 1001.91 1001.81 1001.67 1001.53 1001.39 1001.28 1001.23 1001.25 1001.36 1001.55 1001.84 1002.21 1002.64 1003.13 1003.66 1004.21 1004.76 1005.31 1005.85 1006.38 1006.90 1007.40 1007.90 1008.39 1008.87
1000.96 1000.50 1000.16 999.94 999.83 999.82 999.89 1000.05 1000.26 1000.51 1000.79 1001.08 1001.35 1001.59 1001.79 1001.92 1002.00 1002.00 1001.95 1001.85 1001.71 1001.57 1001.45 1001.37 1001.35 1001.40 1001.54 1001.77 1002.08 1002.47 1002.91 1003.40 1003.92 1004.44 1004.97 1005.49 1006.00 1006.50 1006.99 1007.47 1007.94 1008.41 1008.88
1001.18 1000.66 1000.26 999.97 999.79 999.73 999.77 999.89 1000.09 1000.34 1000.63 1000.93 1001.21 1001.47 1001.68 1001.83 1001.91 1001.93 1001.89 1001.80 1001.68 1001.57 1001.47 1001.42 1001.43 1001.52 1001.69 1001.95 1002.28 1002.68 1003.13 1003.61 1004.10 1004.60 1005.10 1005.59 1006.06 1006.52 1006.98 1007.43 1007.88 1008.32 1008.76
1001.70 1001.11 1000.63 1000.26 1000.01 999.87 999.83 999.89 1000.04 1000.25 1000.51 1000.79 1001.06 1001.32 1001.53 1001.69 1001.78 1001.81 1001.78 1001.72 1001.62 1001.53 1001.47 1001.45 1001.49 1001.60 1001.80 1002.07 1002.41 1002.81 1003.24 1003.70 1004.17 1004.64 1005.10 1005.54 1005.98 1006.41 1006.83 1007.25 1007.67 1008.08 1008.49
1002.49 1001.85 1001.31 1000.86 1000.52 1000.28 1000.16 1000.13 1000.20 1000.35 1000.55 1000.79 1001.03 1001.27 1001.47 1001.62 1001.71 1001.75 1001.74 1001.68 1001.62 1001.55 1001.50 1001.50 1001.56 1001.69 1001.89 1002.16 1002.48 1002.86 1003.26 1003.69 1004.11 1004.54 1004.95 1005.36 1005.75 1006.14 1006.53 1006.92 1007.31 1007.69 1008.07
Thickness
5621 5618 5615 5612 5610 5607 5604 5604 5603 5603 5604 5605 5607 5610 5613 5617 5620 5623 5627 5630 5634 5637 5641 5644 5647 5649 5651 5654 5657 5660 5663 5665 5669 5674 5676 5678 5680 5682 5685 5687 5688 5690 5690
5607 5603 5600 5597 5594 5591 5589 5588 5587 5587 5588 5588 5590 5592 5595 5599 5603 5606 5611 5616 5619 5623 5628 5632 5636 5640 5643 5646 5648 5652 5656 5659 5663 5667 5669 5671 5673 5675 5678 5680 5681 5683 5683
5591 5588 5584 5581 5579 5577 5575 5574 5573 5572 5572 5572 5573 5575 5578 5582 5585 5589 5593 5598 5603 5608 5613 5618 5624 5628 5633 5636 5640 5644 5648 5653 5656 5660 5662 5665 5666 5668 5671 5673 5674 5675 5675
5576 5571 5568 5566 5565 5563 5562 5561 5559 5558 5557 5558 5558 5560 5562 5565 5568 5572 5576 5581 5586 5592 5598 5604 5610 5616 5623 5628 5631 5636 5640 5644 5648 5652 5655 5658 5660 5662 5664 5665 5666 5667 5666
5561 5557 5555 5553 5551 5549 5548 5547 5546 5546 5546 5546 5546 5547 5549 5550 5553 5556 5560 5565 5570 5576 5582 5589 5597 5604 5612 5618 5623 5628 5632 5636 5641 5645 5649 5652 5654 5655 5658 5659 5659 5658 5657
5549 5546 5543 5540 5538 5537 5536 5535 5534 5534 5534 5535 5535 5536 5538 5541 5544 5546 5548 5551 5555 5560 5567 5575 5583 5591 5600 5607 5614 5620 5625 5630 5635 5640 5644 5648 5651 5652 5653 5653 5653 5653 5650
5538 5534 5531 5528 5526 5526 5525 5524 5523 5523 5524 5525 5526 5527 5529 5532 5534 5536 5538 5540 5543 5548 5553 5560 5569 5579 5587 5596 5603 5611 5617 5623 5630 5635 5640 5645 5648 5650 5649 5648 5649 5649 5647
5526 5523 5520 5517 5515 5514 5513 5512 5512 5513 5514 5516 5518 5519 5521 5524 5526 5528 5530 5532 5534 5538 5543 5549 5557 5565 5574 5582 5591 5600 5608 5616 5623 5629 5636 5641 5644 5646 5647 5646 5645 5642 5639
5517 5513 5509 5506 5505 5504 5503 5503 5503 5503 5504 5506 5509 5512 5514 5517 5520 5522 5523 5524 5527 5531 5536 5541 5547 5554 5563 5570 5580 5590 5599 5607 5614 5621 5628 5634 5638 5640 5641 5640 5638 5637 5634
5508 5504 5500 5497 5495 5495 5495 5494 5494 5494 5496 5498 5502 5504 5508 5511 5514 5516 5517 5519 5521 5525 5529 5533 5539 5545 5551 5559 5569 5579 5589 5599 5606 5613 5619 5625 5630 5633 5635 5638 5638 5636 5633
5501 5496 5492 5489 5487 5487 5486 5486 5486 5486 5487 5489 5493 5497 5500 5504 5508 5510 5512 5513 5517 5520 5524 5528 5533 5537 5543 5550 5560 5570 5581 5589 5597 5605 5612 5618 5622 5625 5628 5631 5633 5635 5632
5495 5491 5487 5485 5482 5483 5480 5479 5479 5479 5481 5483 5486 5490 5494 5498 5502 5506 5508 5510 5513 5516 5520 5524 5528 5531 5536 5543 5552 5562 5569 5578 5589 5598 5606 5612 5617 5619 5622 5624 5625 5626 5628
5492 5487 5484 5481 5479 5477 5475 5475 5474 5474 5476 5479 5481 5485 5490 5494 5497 5501 5504 5507 5510 5512 5516 5519 5522 5526 5530 5537 5546 5554 5561 5571 5582 5592 5601 5607 5612 5614 5615 5616 5616 5616 5616
5488 5485 5481 5478 5476 5474 5472 5472 5472 5472 5473 5476 5478 5482 5486 5490 5494 5497 5500 5504 5506 5509 5511 5514 5516 5520 5525 5532 5540 5548 5557 5567 5578 5588 5596 5600 5604 5607 5608 5610 5610 5610 5608
5486 5482 5479 5475 5473 5472 5471 5470 5470 5470 5471 5473 5476 5479 5483 5487 5492 5495 5497 5500 5502 5505 5507 5509 5512 5516 5522 5529 5536 5545 5553 5562 5572 5581 5589 5594 5598 5601 5602 5603 5604 5604 5604
5486 5482 5477 5474 5472 5471 5470 5469 5469 5469 5470 5471 5473 5476 5482 5485 5489 5492 5493 5496 5497 5499 5502 5507 5510 5514 5520 5528 5535 5542 5550 5560 5569 5577 5584 5590 5594 5596 5597 5597 5599 5600 5599
5486 5482 5478 5474 5472 5471 5469 5469 5469 5469 5470 5471 5473 5476 5479 5484 5487 5489 5490 5491 5493 5495 5500 5505 5509 5513 5518 5525 5532 5541 5549 5557 5565 5573 5579 5584 5588 5590 5591 5592 5593 5593 5592
5489 5485 5480 5476 5473 5472 5470 5470 5469 5470 5471 5473 5473 5475 5479 5482 5485 5486 5487 5489 5491 5494 5500 5504 5507 5511 5516 5523 5530 5538 5546 5553 5560 5568 5574 5579 5583 5585 5586 5587 5588 5589 5587
5494 5489 5484 5480 5477 5475 5473 5472 5472 5472 5472 5473 5475 5476 5478 5480 5482 5484 5486 5491 5494 5496 5499 5503 5506 5510 5516 5522 5530 5537 5545 5551 5557 5563 5569 5573 5577 5579 5581 5582 5583 5580 5582
5498 5494 5490 5486 5482 5479 5477 5476 5475 5474 5474 5475 5476 5478 5479 5481 5484 5485 5487 5491 5494 5496 5499 5503 5507 5512 5517 5524 5531 5537 5544 5549 5555 5560 5565 5569 5572 5575 5576 5577 5578 5578 5578
5503 5498 5495 5490 5486 5483 5481 5480 5479 5478 5478 5478 5479 5480 5481 5484 5486 5487 5489 5492 5496 5498 5502 5506 5510 5516 5521 5526 5533 5539 5544 5550 5554 5559 5563 5566 5569 5570 5572 5573 5573 5573 5573
5509 5504 5499 5495 5491 5488 5486 5485 5483 5483 5482 5483 5483 5484 5484 5487 5489 5490 5492 5495 5499 5502 5505 5510 5515 5520 5526 5532 5537 5542 5546 5551 5554 5559 5562 5564 5566 5567 5568 5569 5569 5569 5569
5515 5511 5506 5502 5498 5495 5493 5491 5489 5488 5487 5488 5488 5488 5489 5491 5492 5495 5497 5501 5504 5508 5512 5516 5520 5525 5530 5536 5541 5546 5550 5554 5557 5561 5563 5564 5565 5566 5566 5566 5567 5567 5566
5522 5518 5513 5509 5506 5503 5500 5497 5495 5494 5493 5493 5493 5493 5494 5496 5498 5501 5503 5507 5510 5514 5517 5522 5526 5531 5536 5540 5544 5549 5553 5557 5560 5562 5564 5565 5565 5565 5565 5565 5566 5566 5564
5528 5525 5521 5516 5513 5510 5507 5505 5503 5502 5500 5500 5500 5500 5501 5503 5505 5508 5510 5513 5517 5520 5523 5528 5532 5537 5541 5545 5549 5553 5555 5558 5561 5563 5564 5565 5565 5565 5565 5565 5565 5564 5562
5533 5530 5527 5524 5520 5517 5515 5513 5511 5510 5509 5508 5508 5508 5509 5511 5513 5515 5517 5520 5523 5526 5530 5533 5538 5542 5546 5549 5553 5555 5557 5559 5562 5564 5566 5566 5565 5565 5565 5564 5563 5562 5560